TimeEDT,TemperatureF,Dew PointF,Humidity,Sea Level PressureIn,VisibilityMPH,Wind Direction,Wind SpeedMPH,Gust SpeedMPH,PrecipitationIn,Events,Conditions,WindDirDegrees,DateUTC
12:54 AM,64.9,61.0,87,29.99,10.0,South,5.8,-,N/A,,Scattered Clouds,180,2013-05-21 04:54:00
1:54 AM,66.0,61.0,84,29.96,10.0,South,5.8,-,N/A,,Clear,190,2013-05-21 05:54:00
2:54 AM,64.9,61.0,87,29.96,10.0,SW,5.8,-,N/A,,Mostly Cloudy,230,2013-05-21 06:54:00
3:28 AM,62.6,60.8,94,30.00,10.0,SW,5.8,-,N/A,,Scattered Clouds,230,2013-05-21 07:28:00
3:54 AM,64.9,61.0,87,29.96,10.0,SSW,6.9,-,N/A,,Clear,200,2013-05-21 07:54:00
4:54 AM,63.0,61.0,93,29.98,6.0,SW,6.9,-,N/A,,Clear,220,2013-05-21 08:54:00
5:54 AM,64.0,61.0,90,29.98,5.0,SSW,6.9,-,N/A,,Clear,210,2013-05-21 09:54:00
6:54 AM,64.0,61.0,90,29.99,5.0,SW,8.1,-,N/A,,Clear,220,2013-05-21 10:54:00
7:28 AM,64.4,60.8,88,30.04,6.0,SW,5.8,-,N/A,,Mostly Cloudy,230,2013-05-21 11:28:00
7:39 AM,64.4,60.8,88,30.04,6.0,SSW,5.8,-,N/A,,Partly Cloudy,210,2013-05-21 11:39:00
7:54 AM,66.0,61.0,84,29.99,7.0,SSW,5.8,-,N/A,,Clear,200,2013-05-21 11:54:00
8:54 AM,68.0,62.1,81,29.99,8.0,SW,5.8,-,N/A,,Partly Cloudy,230,2013-05-21 12:54:00
9:54 AM,72.0,64.0,76,29.99,9.0,WSW,5.8,-,N/A,,Clear,250,2013-05-21 13:54:00
10:43 AM,73.4,64.4,73,30.03,10.0,West,8.1,-,N/A,,Mostly Cloudy,260,2013-05-21 14:43:00
10:52 AM,73.4,64.4,73,30.03,10.0,West,10.4,-,N/A,,Mostly Cloudy,260,2013-05-21 14:52:00
10:54 AM,73.9,63.0,68,29.98,10.0,West,9.2,-,N/A,,Mostly Cloudy,270,2013-05-21 14:54:00
11:54 AM,77.0,62.1,60,29.97,10.0,WSW,8.1,-,N/A,,Partly Cloudy,250,2013-05-21 15:54:00
12:54 PM,78.1,59.0,52,29.96,10.0,SW,5.8,-,N/A,,Scattered Clouds,230,2013-05-21 16:54:00
1:54 PM,80.1,59.0,48,29.94,10.0,West,10.4,-,N/A,,Partly Cloudy,260,2013-05-21 17:54:00
2:54 PM,81.0,59.0,47,29.91,10.0,West,10.4,-,N/A,,Partly Cloudy,260,2013-05-21 18:54:00
3:54 PM,82.0,59.0,45,29.90,10.0,SSW,8.1,16.1,N/A,,Partly Cloudy,210,2013-05-21 19:54:00
4:54 PM,80.1,57.0,45,29.89,10.0,SSW,8.1,-,N/A,,Partly Cloudy,200,2013-05-21 20:54:00
5:54 PM,81.0,57.0,44,29.87,10.0,South,10.4,17.3,N/A,,Clear,180,2013-05-21 21:54:00
6:54 PM,79.0,57.9,48,29.87,10.0,SSW,9.2,-,N/A,,Clear,210,2013-05-21 22:54:00
7:54 PM,77.0,59.0,54,29.88,10.0,SW,5.8,-,N/A,,Clear,230,2013-05-21 23:54:00
8:54 PM,73.9,59.0,59,29.88,10.0,SW,5.8,-,N/A,,Clear,220,2013-05-22 00:54:00
9:54 PM,71.1,59.0,66,29.90,10.0,WSW,5.8,-,N/A,,Clear,240,2013-05-22 01:54:00
10:54 PM,70.0,60.1,71,29.90,10.0,SW,5.8,-,N/A,,Clear,220,2013-05-22 02:54:00
11:54 PM,69.1,60.1,73,29.90,10.0,SW,6.9,-,N/A,,Clear,230,2013-05-22 03:54:00